Temperature
14 14 14 14 14 15 15 15 15 15 15 15 15 15 15 15 15 15 15 15 15 15 14 14 14 14 15 15 14 14 14 14 14 14 14 14 14 14 14 14 14 14 14
14 14 14 14 14 14 15 15 15 15 15 15 15 15 15 15 15 15 15 15 15 14 14 14 14 14 14 14 14 14 14 14 14 14 14 14 14 14 14 14 14 14 14
13 13 14 14 14 14 15 15 15 15 15 15 15 15 15 14 15 15 14 14 14 14 14 14 14 14 14 14 14 14 14 14 14 14 14 13 13 14 14 14 14 14 14
13 13 13 13 14 14 14 14 15 15 15 15 14 14 14 14 14 14 14 14 14 14 14 14 14 14 14 14 14 14 13 13 13 13 13 13 13 13 13 13 13 13 13
13 13 13 13 13 14 14 14 14 14 14 14 14 14 14 14 14 14 14 14 14 14 14 14 14 14 14 13 13 13 13 13 13 13 13 13 13 13 13 13 13 13 13
13 13 13 13 13 13 14 14 14 14 14 14 14 14 14 14 14 14 14 14 14 14 14 14 14 14 13 13 13 13 13 13 13 13 13 13 13 13 13 13 13 13 13
13 13 13 13 13 13 13 13 14 14 14 14 14 13 13 13 14 14 13 13 13 13 13 13 13 13 13 13 13 13 13 13 13 13 13 13 13 13 13 13 13 13 13
12 12 12 12 13 13 13 13 13 13 13 13 13 13 13 13 13 13 13 13 13 13 13 13 13 13 13 13 13 13 13 12 12 12 12 12 12 12 12 12 12 12 12
12 12 12 12 12 12 12 13 13 13 13 13 13 13 13 13 13 13 13 13 13 13 13 13 13 13 13 13 13 12 12 12 12 12 12 12 12 12 12 12 12 12 12
11 11 11 11 12 12 12 12 12 12 12 13 13 13 13 13 12 12 12 13 13 12 12 12 12 12 12 12 12 12 12 12 12 12 12 12 12 12 12 12 12 12 12
10 10 11 11 11 11 11 12 12 12 12 12 12 12 12 12 12 12 12 12 12 12 12 12 12 12 12 12 12 12 12 12 12 12 12 12 12 12 12 12 12 12 11
10 10 10 10 11 11 11 11 11 11 12 12 12 12 12 12 12 12 12 12 12 12 12 12 12 12 12 12 12 12 12 12 12 12 12 11 11 11 12 11 11 11 11
9 9 10 10 10 10 10 11 11 11 11 11 11 11 11 11 11 11 11 11 11 11 11 11 11 12 11 11 11 11 11 11 11 11 11 11 11 11 11 11 11 11 11
9 9 9 9 9 10 10 10 10 10 11 11 11 11 11 11 11 11 11 11 11 11 11 11 11 11 11 11 11 11 11 11 11 11 11 11 11 11 11 11 11 11 10
8 9 9 9 9 9 9 10 10 10 10 10 10 10 11 11 11 11 10 11 11 11 11 10 11 11 11 11 11 11 11 11 11 11 11 11 11 11 11 10 10 10 10
8 8 8 8 8 9 9 9 9 9 10 10 10 10 10 10 10 10 10 10 10 10 10 10 10 10 10 10 10 10 10 10 10 10 10 10 10 10 10 10 10 10 10
7 7 7 8 8 8 8 8 9 9 9 9 9 9 10 10 10 10 10 10 10 10 10 10 10 10 10 10 10 10 10 10 10 10 10 10 10 10 10 10 10 10 10
6 6 7 7 7 7 8 8 8 8 8 9 9 9 9 9 9 9 9 9 9 9 9 9 9 9 9 9 9 9 9 9 10 10 10 10 10 10 10 10 10 9 9
6 6 6 6 6 7 7 7 7 8 8 8 8 8 9 9 9 9 9 9 9 9 9 9 9 9 9 9 9 9 9 9 9 9 9 9 9 9 9 9 9 9 9
5 5 5 6 6 6 6 6 7 7 7 7 8 8 8 8 8 8 8 8 8 8 8 8 8 8 8 8 8 8 8 8 8 9 9 9 9 9 9 9 9 9 9
5 5 5 5 5 5 6 6 6 6 6 7 7 7 7 7 7 8 8 8 8 8 8 8 8 8 8 8 8 8 8 8 8 8 8 8 8 8 8 8 9 9 9
4 4 5 5 5 5 5 5 5 6 6 6 6 7 7 7 7 7 7 7 7 8 7 7 7 7 7 7 7 7 7 7 7 7 7 7 8 8 8 8 8 8 8
4 4 4 4 4 5 5 5 5 5 5 5 5 6 6 6 6 7 7 7 7 7 7 7 7 7 7 7 7 7 7 6 6 6 7 7 7 7 8 8 8 8 8
3 3 3 4 4 4 4 4 4 4 5 5 5 5 5 5 6 6 6 6 7 7 7 7 7 7 7 7 7 7 7 7 6 6 6 6 6 7 7 7 7 7 7
2 2 3 3 3 3 3 4 4 4 4 4 4 4 5 5 5 5 6 6 6 6 6 6 6 6 6 7 6 6 6 6 6 6 5 6 6 6 6 7 7 7 7
2 2 2 2 2 3 3 3 3 3 3 3 4 4 4 4 4 5 5 5 5 5 6 6 6 6 6 6 6 6 6 6 6 6 6 5 5 6 6 6 6 6 6
Wind_Speed
2 4 3 5 5 7 8 9 10 10 12 12 12 13 13 14 14 15 15 15 15 15 16 16 17 18 18 19 19 19 19 19 19 19 19 19 19 19 19 19 18 18 20
1 1 3 5 6 6 8 9 10 10 10 11 12 12 12 13 13 14 14 14 14 15 16 16 17 17 18 18 18 18 19 19 19 19 19 19 19 19 19 18 18 17 19
2 2 3 5 6 6 7 8 9 10 10 10 11 11 12 12 13 13 13 14 14 15 15 16 16 17 17 17 17 17 17 17 17 17 16 15 17 18 18 18 18 19 19
3 3 3 4 6 6 7 8 8 9 10 10 10 11 11 12 13 13 13 14 14 14 15 15 15 15 15 16 16 16 16 16 16 15 13 13 14 17 17 18 18 18 18
5 5 4 5 6 7 7 8 8 9 9 10 10 10 11 12 12 13 13 13 14 14 15 15 14 14 15 15 15 15 16 16 16 15 13 13 14 16 17 17 17 17 17
5 6 6 7 6 7 7 8 8 9 9 9 9 9 10 11 12 13 13 13 14 14 14 14 14 14 13 13 14 15 15 16 15 14 13 13 13 16 16 16 16 16 16
4 6 6 8 8 7 8 8 8 8 9 9 9 9 10 11 12 12 12 13 13 14 14 13 13 13 13 13 14 14 15 15 14 13 12 12 13 15 15 15 15 15 15
5 5 6 7 8 9 8 8 8 8 8 8 9 9 9 10 11 11 12 13 13 13 13 12 12 12 12 13 13 14 14 13 12 11 11 12 13 14 14 14 14 14 14
6 6 6 6 7 8 9 8 8 8 8 8 8 9 9 10 11 12 12 12 12 12 12 12 11 12 12 12 13 13 14 13 12 10 10 11 12 13 14 14 13 14 14
5 5 5 5 6 6 7 7 8 8 8 7 8 8 9 10 10 12 12 11 12 12 12 11 11 12 12 12 12 13 13 12 11 10 9 11 12 12 13 13 13 13 13
4 4 4 5 5 5 5 6 7 7 7 8 8 9 9 8 9 9 11 11 11 11 11 11 11 11 11 11 12 12 11 10 10 9 9 10 11 11 11 12 12 12 12
2 2 4 4 4 4 4 4 5 5 6 6 7 8 8 8 8 8 10 11 11 10 10 10 10 10 10 9 10 9 9 9 9 7 8 9 10 10 11 11 11 11 10
1 1 2 3 4 4 3 3 4 4 5 5 6 7 8 8 8 7 7 8 9 8 7 7 8 8 8 8 7 8 8 8 7 7 8 9 9 9 10 10 10 10 10
1 1 1 3 3 3 3 3 3 3 3 3 4 6 7 5 5 5 5 6 6 6 5 5 6 7 8 8 8 7 7 7 7 7 8 8 8 8 9 9 9 9 9
1 1 1 2 2 2 2 2 2 2 2 3 4 5 5 5 4 4 4 5 5 5 5 5 5 6 6 7 7 7 6 7 8 7 7 8 8 8 8 8 8 9 9
1 1 1 1 2 2 2 2 2 2 2 3 3 4 5 4 4 4 3 4 4 4 5 5 5 5 5 5 5 6 6 7 7 7 6 7 7 7 7 7 7 7 7
1 1 1 0 2 2 1 1 2 2 2 2 3 4 4 4 4 4 3 3 3 4 5 5 5 6 5 4 4 4 5 6 6 6 6 6 6 6 6 6 6 6 6
1 1 1 1 1 1 1 1 2 2 2 2 2 3 4 4 4 4 3 2 3 4 5 4 3 3 4 3 3 2 3 4 5 5 5 5 5 5 5 6 6 5 5
1 1 1 2 1 0 0 1 2 2 2 2 3 3 3 4 4 4 3 2 4 4 3 3 3 3 4 4 3 2 2 2 3 4 4 5 5 5 5 5 5 5 5
1 1 1 2 1 1 1 1 2 2 2 2 3 2 3 4 4 4 3 3 4 3 3 3 3 3 4 4 3 3 2 1 2 3 4 5 5 5 5 6 5 4 4
2 2 1 1 2 1 1 1 2 2 1 1 2 3 3 3 4 4 3 3 3 3 4 4 3 4 3 3 3 2 2 2 2 2 3 4 4 4 5 5 5 4 3
2 1 1 1 2 1 0 1 2 2 2 2 2 2 3 3 3 4 3 3 2 3 3 4 4 3 2 3 3 3 1 1 1 1 1 1 2 3 3 3 4 4 3
3 2 1 1 1 2 1 0 0 0 0 1 1 1 2 2 2 3 4 4 3 3 4 4 4 3 4 2 2 3 2 2 1 1 0 1 1 1 1 2 2 2 2
3 2 2 2 2 2 2 1 2 1 1 1 1 1 1 1 1 2 3 4 3 3 4 4 3 3 4 3 1 0 1 2 2 1 1 1 0 0 0 1 2 2 2
2 2 3 3 3 3 3 2 1 1 1 1 1 2 1 1 2 1 2 3 3 2 3 4 4 4 3 3 2 1 1 1 1 2 2 1 1 1 1 1 2 2 3
2 2 3 3 4 4 4 3 1 0 1 1 2 2 1 1 0 1 1 2 2 2 3 4 4 4 3 2 2 1 2 2 2 1 2 2 2 2 2 1 1 2 3
Wind_Direction
328 337 35 59 73 88 91 94 96 100 103 104 105 105 103 102 102 104 105 104 103 102 100 97 96 95 93 92 91 89 87 85 83 83 82 83 84 84 83 81 79 77 79
306 357 70 74 77 86 94 95 99 99 106 106 107 109 109 107 106 107 108 106 106 105 103 100 98 97 96 95 93 92 90 88 86 85 82 83 85 86 86 85 84 84 82
54 58 81 81 83 84 96 101 103 102 104 110 109 112 113 111 110 109 109 108 107 107 105 104 102 100 99 98 96 94 93 92 89 87 84 83 87 88 88 86 86 85 82
70 60 82 85 88 86 94 107 110 109 105 108 112 111 115 113 112 111 110 109 110 109 109 107 104 102 100 99 99 97 96 95 91 87 82 82 87 89 89 87 86 86 85
61 52 60 79 91 90 93 103 113 110 107 104 109 111 114 116 115 113 111 110 111 110 110 108 107 103 100 98 98 99 98 96 94 87 84 84 88 91 89 88 86 86 85
59 53 59 65 84 91 95 101 110 111 109 107 106 112 114 115 118 116 113 113 112 112 111 110 108 104 101 100 99 98 98 99 94 89 87 88 91 92 91 90 88 86 86
68 56 64 65 68 80 90 100 100 106 110 109 108 110 115 116 117 119 118 116 114 113 112 112 109 107 104 104 101 99 98 102 96 92 91 93 96 95 93 92 90 88 86
86 64 67 68 65 68 76 86 91 96 106 109 107 107 110 115 118 120 122 121 118 116 115 114 110 108 109 107 103 100 101 102 98 95 96 99 102 98 95 94 92 90 87
78 66 57 61 67 69 69 78 83 87 94 103 104 104 106 111 119 121 120 124 123 120 118 114 110 107 108 108 105 102 102 102 99 98 101 103 105 102 98 96 94 93 91
68 59 51 51 57 64 71 77 80 82 84 93 98 100 102 109 118 124 122 122 125 124 121 117 112 107 105 105 104 103 105 102 99 98 103 108 108 104 102 101 98 96 93
58 44 39 38 43 55 71 78 82 82 79 85 88 90 91 99 108 122 124 122 126 127 126 121 114 105 101 102 100 100 100 103 102 99 106 112 112 110 107 105 102 100 98
53 39 32 26 32 51 70 75 79 84 76 80 88 91 87 90 99 110 121 119 123 128 128 123 113 105 99 97 95 96 98 103 103 103 109 114 115 115 112 111 108 106 105
149 71 44 27 31 44 49 67 65 75 76 76 89 91 91 87 92 100 106 111 117 119 119 118 110 104 101 99 96 97 99 101 103 105 111 111 114 118 116 115 116 114 111
44 13 42 39 37 36 44 54 63 67 77 79 90 97 97 92 92 95 100 107 111 115 113 113 110 106 102 102 99 97 97 103 106 106 111 108 110 118 120 119 120 121 117
42 3 347 38 49 47 54 55 61 67 86 95 102 100 105 104 108 101 108 108 105 109 115 116 113 105 102 101 101 102 99 105 109 109 114 113 111 117 125 124 121 124 124
344 350 344 51 48 61 70 61 61 60 87 94 100 101 107 112 115 115 108 105 105 111 119 124 122 110 105 107 103 105 108 111 112 110 114 119 118 118 119 124 127 125 128
279 344 357 136 55 67 74 90 83 64 72 88 112 111 109 116 125 125 114 112 119 123 114 115 110 108 107 105 105 105 111 115 119 116 116 120 125 126 129 125 130 130 128
68 35 4 12 59 86 75 97 96 83 88 71 111 122 122 125 131 130 122 124 137 131 120 126 128 117 117 115 113 105 106 110 116 121 121 122 126 133 135 132 127 130 129
42 79 28 11 23 113 126 128 107 98 85 89 94 111 133 134 131 131 125 129 141 127 117 131 131 134 130 123 121 115 105 105 112 119 119 125 127 124 123 127 131 128 127
17 51 46 9 2 15 114 100 99 97 80 69 95 96 133 139 137 133 126 127 131 128 135 132 139 137 138 136 123 101 78 89 115 122 130 125 118 114 112 109 112 119 123
23 42 50 17 356 30 153 172 182 184 167 122 90 122 119 139 138 134 130 135 130 145 149 135 138 141 133 128 112 85 43 35 68 91 112 112 108 112 113 113 113 111 118
12 3 34 19 11 1 230 215 206 199 188 161 102 92 105 127 138 145 138 149 138 141 134 133 130 141 151 133 131 127 118 27 3 9 65 108 111 117 117 124 126 127 124
3 352 353 7 14 11 10 84 106 135 121 121 132 109 60 96 131 140 152 148 146 150 162 164 154 134 161 165 142 141 152 190 206 311 335 108 92 68 103 133 144 149 153
340 344 357 16 28 21 31 92 138 163 194 196 191 168 57 65 91 136 151 151 156 163 172 176 158 150 155 169 182 79 146 154 164 200 302 335 9 236 242 156 180 188 180
345 5 21 20 27 26 22 29 103 88 211 175 161 161 156 46 45 111 150 153 164 178 179 175 166 159 162 166 172 162 115 107 116 164 209 244 302 277 263 196 183 196 208
7 25 31 26 16 19 19 14 24 101 120 142 159 181 177 175 110 23 143 158 172 184 193 184 176 170 173 169 174 172 169 179 189 178 193 210 234 260 271 237 197 203 216
Height
1534 1534 1536 1536 1537 1538 1539 1539 1540 1540 1541 1541 1542 1542 1543 1543 1544 1544 1545 1545 1545 1545 1546 1546 1547 1547 1547 1547 1546 1546 1547 1547 1547 1547 1547 1547 1547 1547 1547 1547 1546 1546 1546
1532 1534 1535 1536 1537 1538 1539 1539 1540 1541 1541 1542 1542 1543 1544 1544 1545 1545 1546 1546 1546 1547 1547 1547 1548 1548 1548 1548 1548 1548 1548 1549 1549 1549 1549 1549 1549 1549 1549 1549 1549 1549 1548
1532 1533 1534 1536 1537 1537 1538 1539 1540 1541 1541 1542 1543 1544 1544 1545 1545 1546 1547 1547 1547 1548 1548 1549 1549 1549 1549 1549 1550 1550 1550 1550 1551 1551 1551 1551 1551 1551 1551 1551 1551 1551 1550
1532 1532 1533 1535 1536 1537 1538 1539 1539 1540 1541 1542 1543 1544 1545 1545 1546 1546 1547 1548 1548 1549 1549 1550 1550 1550 1551 1551 1551 1551 1552 1552 1552 1553 1553 1553 1553 1553 1553 1553 1553 1552 1552
1531 1532 1533 1534 1535 1536 1537 1538 1539 1540 1541 1542 1543 1544 1545 1546 1546 1547 1548 1548 1549 1549 1550 1551 1551 1551 1552 1552 1553 1553 1553 1553 1554 1554 1554 1555 1555 1555 1555 1555 1554 1554 1554
1531 1532 1532 1533 1534 1535 1536 1537 1538 1539 1540 1541 1542 1544 1545 1546 1546 1547 1548 1548 1549 1550 1551 1551 1552 1552 1553 1553 1554 1554 1555 1555 1555 1556 1556 1556 1556 1557 1556 1556 1556 1556 1555
1530 1531 1532 1533 1534 1535 1536 1537 1538 1539 1540 1541 1542 1543 1544 1545 1546 1547 1548 1549 1549 1550 1551 1552 1552 1553 1554 1554 1555 1555 1556 1556 1557 1557 1557 1558 1558 1558 1558 1558 1557 1557 1557
1530 1530 1531 1532 1533 1534 1535 1536 1537 1538 1539 1540 1541 1542 1543 1544 1546 1547 1548 1548 1549 1550 1551 1552 1553 1553 1554 1555 1556 1556 1557 1557 1558 1558 1559 1559 1559 1559 1559 1559 1559 1559 1558
1529 1530 1530 1531 1532 1533 1534 1535 1536 1537 1538 1539 1540 1541 1542 1543 1545 1546 1547 1548 1549 1550 1551 1552 1553 1554 1555 1555 1556 1557 1557 1558 1559 1559 1560 1560 1561 1560 1560 1560 1560 1560 1560
1528 1529 1529 1530 1531 1532 1533 1533 1534 1536 1537 1538 1539 1540 1541 1543 1544 1545 1546 1547 1549 1550 1551 1552 1553 1554 1555 1555 1556 1557 1558 1559 1559 1560 1560 1561 1561 1561 1561 1561 1561 1560 1561
1527 1528 1528 1529 1529 1530 1531 1532 1533 1535 1536 1536 1538 1539 1540 1542 1543 1544 1545 1547 1548 1549 1551 1552 1553 1554 1555 1556 1557 1557 1558 1559 1560 1560 1561 1562 1562 1562 1562 1562 1561 1561 1562
1525 1526 1526 1527 1528 1529 1530 1531 1532 1533 1534 1535 1536 1537 1539 1540 1542 1543 1544 1546 1547 1549 1550 1551 1552 1553 1554 1555 1556 1557 1558 1559 1560 1561 1562 1562 1562 1562 1562 1562 1562 1562 1562
1523 1524 1525 1526 1526 1527 1528 1529 1530 1531 1532 1534 1535 1536 1537 1539 1540 1542 1543 1545 1546 1548 1549 1550 1551 1553 1554 1555 1556 1557 1558 1559 1560 1561 1562 1562 1563 1563 1563 1563 1562 1563 1563
1522 1522 1523 1524 1525 1526 1527 1528 1529 1529 1530 1532 1533 1534 1535 1537 1539 1540 1542 1544 1545 1546 1547 1549 1550 1552 1553 1554 1556 1557 1558 1558 1559 1560 1561 1562 1562 1563 1563 1563 1563 1563 1563
1520 1520 1521 1522 1523 1524 1525 1526 1527 1528 1529 1530 1531 1532 1534 1535 1537 1539 1541 1542 1543 1545 1546 1548 1549 1551 1552 1554 1555 1556 1557 1558 1559 1560 1561 1562 1562 1563 1563 1563 1563 1563 1563
1517 1518 1519 1519 1520 1522 1523 1524 1525 1526 1527 1528 1529 1530 1532 1533 1535 1537 1538 1540 1542 1544 1545 1547 1548 1549 1551 1552 1554 1555 1556 1557 1558 1559 1560 1561 1562 1562 1562 1563 1563 1563 1563
1515 1516 1516 1517 1518 1519 1520 1522 1523 1523 1524 1526 1527 1528 1530 1531 1533 1535 1536 1538 1540 1542 1544 1545 1547 1548 1549 1551 1553 1554 1555 1556 1557 1558 1559 1560 1560 1561 1562 1562 1562 1563 1563
1513 1513 1514 1515 1516 1517 1518 1519 1520 1521 1522 1523 1525 1526 1528 1529 1531 1533 1534 1536 1538 1540 1542 1544 1545 1546 1547 1549 1551 1552 1554 1555 1556 1557 1558 1559 1559 1560 1560 1561 1561 1562 1562
1511 1511 1512 1512 1513 1514 1515 1517 1517 1518 1520 1521 1522 1524 1526 1527 1529 1531 1532 1534 1536 1538 1540 1541 1543 1544 1546 1547 1549 1550 1552 1553 1554 1555 1556 1557 1558 1558 1559 1559 1560 1561 1561
1509 1509 1509 1510 1511 1512 1513 1514 1515 1516 1517 1519 1519 1521 1523 1525 1527 1528 1530 1532 1534 1535 1537 1539 1541 1543 1544 1545 1546 1548 1550 1551 1552 1553 1554 1555 1556 1556 1557 1558 1558 1559 1559
1507 1507 1507 1508 1509 1509 1510 1511 1512 1513 1514 1516 1517 1519 1520 1522 1524 1526 1528 1530 1532 1533 1534 1536 1539 1541 1542 1543 1544 1545 1547 1549 1550 1551 1552 1553 1553 1554 1555 1556 1556 1557 1558
1505 1505 1505 1505 1506 1507 1508 1509 1510 1510 1512 1513 1514 1516 1517 1519 1521 1523 1525 1527 1529 1531 1532 1534 1536 1537 1539 1540 1542 1543 1545 1547 1547 1549 1550 1551 1551 1552 1553 1553 1554 1555 1555
1503 1503 1503 1504 1504 1505 1505 1506 1507 1508 1509 1511 1512 1513 1514 1516 1518 1520 1522 1524 1526 1528 1530 1531 1533 1534 1536 1538 1540 1541 1542 1542 1544 1546 1546 1548 1549 1550 1550 1551 1552 1552 1553
1502 1502 1501 1502 1502 1503 1503 1504 1504 1504 1505 1507 1508 1510 1512 1514 1516 1518 1520 1522 1524 1526 1528 1529 1531 1532 1533 1535 1537 1538 1540 1540 1541 1542 1544 1544 1545 1546 1547 1548 1549 1549 1550
1501 1501 1500 1500 1500 1500 1501 1501 1501 1502 1503 1504 1506 1507 1509 1511 1512 1514 1517 1519 1521 1523 1524 1526 1528 1529 1531 1532 1533 1535 1537 1538 1538 1539 1539 1541 1542 1543 1544 1545 1546 1546 1547
1500 1499 1498 1498 1498 1498 1498 1498 1498 1499 1500 1501 1503 1504 1505 1507 1509 1511 1513 1515 1517 1519 1521 1523 1525 1527 1528 1530 1531 1532 1533 1534 1535 1536 1536 1537 1538 1539 1540 1541 1542 1543 1544